When you browse on this site, cookies collect data to enhance your experience and personalize the content and advertising you see.
Visit our Privacy Policy to learn more. By continuing to use the site, you agree to this use of cookies and data.
  • In Lithuania
  • List of Countries
  • For 7 days
  • Water Temperature
  • Satellite Maps
  • Weather Map
  • Weather Widgets
  • user-avatar
    Login

    Hourly Weather Saurimo

    Today, 12 December, Wednesday

    Time Temperature Precipitation Wind Pressure Humidity
    00:00 +19°C° 0 mm 1 mps 671 mmHg 96%
    01:00 +19°C° 0 mm 1 mps 671 mmHg 97%
    02:00 +19°C° 0 mm 1 mps 670 mmHg 98%
    03:00 +19°C° 0 mm 1 mps 670 mmHg 98%
    04:00 +18°C° 0 mm 1 mps 670 mmHg 98%
    05:00 +19°C° 0 mm 1 mps 671 mmHg 94%
    06:00 +21°C° 0 mm 1 mps 671 mmHg 91%
    07:00 +22°C° 0 mm 1 mps 672 mmHg 87%
    08:00 +24°C° 0 mm 2 mps 672 mmHg 78%
    09:00 +26°C° 0 mm 2 mps 673 mmHg 68%
    10:00 +28°C° 0 mm 3 mps 673 mmHg 59%
    11:00 +28°C° 0.7 mm 2 mps 672 mmHg 62%
    12:00 +28°C° 0.7 mm 2 mps 672 mmHg 66%
    13:00 +28°C° 0.7 mm 2 mps 671 mmHg 69%
    14:00 +28°C° 1.2 mm 1 mps 671 mmHg 74%
    15:00 +27°C° 1.2 mm 1 mps 670 mmHg 79%
    16:00 +27°C° 1.2 mm 1 mps 670 mmHg 83%
    17:00 +25°C° 0.2 mm 1 mps 670 mmHg 86%
    18:00 +23°C° 0.2 mm 1 mps 670 mmHg 89%
    19:00 +22°C° 0.2 mm 1 mps 670 mmHg 92%
    20:00 +21°C° 0 mm 1 mps 671 mmHg 93%
    21:00 +21°C° 0 mm 1 mps 671 mmHg 94%
    22:00 +21°C° 0 mm 1 mps 671 mmHg 95%
    23:00 +18°C° 0.4 mm 0 mps 671 mmHg 96%

    Tomorrow, 13 December, Thursday

    Time Temperature Precipitation Wind Pressure Humidity
    00:00 +18°C° 0.4 mm 0 mps 671 mmHg 96%
    01:00 +18°C° 0.4 mm 0 mps 671 mmHg 96%
    02:00 +18°C° 0 mm 0 mps 671 mmHg 97%
    03:00 +20°C° 0 mm 1 mps 671 mmHg 97%
    04:00 +20°C° 0 mm 1 mps 671 mmHg 97%
    05:00 +20°C° 0 mm 1 mps 671 mmHg 96%
    06:00 +21°C° 0 mm 1 mps 672 mmHg 94%
    07:00 +22°C° 0 mm 1 mps 672 mmHg 93%
    08:00 +23°C° 0.6 mm 1 mps 672 mmHg 89%
    09:00 +24°C° 0.6 mm 1 mps 673 mmHg 86%
    10:00 +25°C° 0.6 mm 1 mps 673 mmHg 82%
    11:00 +26°C° 0.4 mm 1 mps 672 mmHg 74%
    12:00 +28°C° 0.4 mm 2 mps 672 mmHg 67%
    13:00 +29°C° 0.4 mm 2 mps 672 mmHg 59%
    14:00 +28°C° 0.5 mm 2 mps 671 mmHg 67%
    15:00 +27°C° 0.5 mm 2 mps 671 mmHg 75%
    16:00 +26°C° 0.5 mm 2 mps 670 mmHg 84%
    17:00 +24°C° 0.8 mm 1 mps 670 mmHg 87%
    18:00 +23°C° 0.8 mm 1 mps 671 mmHg 91%
    19:00 +21°C° 0.8 mm 1 mps 671 mmHg 95%
    20:00 +21°C° 0.4 mm 1 mps 671 mmHg 95%
    21:00 +21°C° 0.4 mm 1 mps 672 mmHg 95%
    22:00 +20°C° 0.4 mm 1 mps 672 mmHg 96%
    23:00 +20°C° 0.1 mm 1 mps 672 mmHg 96%

    Day after tomorrow, 14 December, Friday

    Time Temperature Precipitation Wind Pressure Humidity
    00:00 +20°C° 0.1 mm 1 mps 671 mmHg 97%
    01:00 +20°C° 0.1 mm 1 mps 671 mmHg 98%
    02:00 +20°C° 0.2 mm 1 mps 671 mmHg 98%
    03:00 +20°C° 0.2 mm 1 mps 671 mmHg 98%
    04:00 +18°C° 0.2 mm 0 mps 671 mmHg 98%
    05:00 +18°C° 0.9 mm 0 mps 671 mmHg 97%
    06:00 +18°C° 0.9 mm 0 mps 672 mmHg 96%
    07:00 +19°C° 0.9 mm 0 mps 673 mmHg 96%
    08:00 +19°C° 1.5 mm 0 mps 673 mmHg 95%
    09:00 +20°C° 1.5 mm 0 mps 673 mmHg 94%
    10:00 +20°C° 1.5 mm 0 mps 673 mmHg 93%
    11:00 +23°C° 0.8 mm 1 mps 672 mmHg 92%
    12:00 +23°C° 0.8 mm 1 mps 672 mmHg 90%
    13:00 +24°C° 0.8 mm 1 mps 671 mmHg 89%
    14:00 +23°C° 0.6 mm 1 mps 671 mmHg 89%
    15:00 +23°C° 0.6 mm 1 mps 670 mmHg 90%
    16:00 +23°C° 0.6 mm 1 mps 670 mmHg 91%
    17:00 +22°C° 0.2 mm 1 mps 670 mmHg 93%
    18:00 +21°C° 0.2 mm 1 mps 671 mmHg 95%
    19:00 +21°C° 0.2 mm 1 mps 671 mmHg 97%
    20:00 +20°C° 0.3 mm 1 mps 671 mmHg 97%
    21:00 +20°C° 0.3 mm 1 mps 672 mmHg 97%
    22:00 +20°C° 0.3 mm 1 mps 672 mmHg 97%
    23:00 +20°C° 0.1 mm 1 mps 671 mmHg 97%

    15 December, Saturday

    Time Temperature Precipitation Wind Pressure Humidity
    00:00 +20°C° 0.1 mm 1 mps 671 mmHg 97%
    01:00 +20°C° 0.1 mm 1 mps 670 mmHg 97%
    02:00 +19°C° 0 mm 1 mps 670 mmHg 97%
    03:00 +19°C° 0 mm 1 mps 670 mmHg 97%
    04:00 +19°C° 0 mm 1 mps 670 mmHg 97%
    05:00 +20°C° 0 mm 1 mps 671 mmHg 95%
    06:00 +21°C° 0 mm 1 mps 672 mmHg 93%
    07:00 +22°C° 0 mm 1 mps 672 mmHg 92%
    08:00 +23°C° 0.3 mm 1 mps 672 mmHg 88%
    09:00 +24°C° 0.3 mm 2 mps 672 mmHg 85%
    10:00 +25°C° 0.3 mm 2 mps 673 mmHg 81%
    11:00 +26°C° 0.6 mm 2 mps 672 mmHg 78%
    12:00 +26°C° 0.6 mm 3 mps 671 mmHg 74%
    13:00 +27°C° 0.6 mm 3 mps 670 mmHg 70%
    14:00 +27°C° 0 mm 3 mps 670 mmHg 69%
    15:00 +27°C° 0 mm 3 mps 670 mmHg 68%
    16:00 +27°C° 0 mm 3 mps 670 mmHg 67%
    17:00 +25°C° 0.1 mm 2 mps 670 mmHg 74%
    18:00 +23°C° 0.1 mm 2 mps 671 mmHg 81%
    19:00 +22°C° 0.1 mm 1 mps 671 mmHg 87%
    20:00 +21°C° 0 mm 1 mps 671 mmHg 88%
    21:00 +21°C° 0 mm 1 mps 671 mmHg 88%
    22:00 +21°C° 0 mm 1 mps 672 mmHg 88%
    23:00 +20°C° 0 mm 1 mps 671 mmHg 89%

    16 December, Sunday

    Time Temperature Precipitation Wind Pressure Humidity
    00:00 +20°C° 0 mm 1 mps 671 mmHg 90%
    01:00 +20°C° 0 mm 1 mps 670 mmHg 91%
    02:00 +20°C° 0 mm 1 mps 670 mmHg 91%
    03:00 +17°C° 0 mm 0 mps 670 mmHg 91%
    04:00 +17°C° 0 mm 0 mps 670 mmHg 92%
    05:00 +18°C° 0 mm 0 mps 671 mmHg 90%
    06:00 +18°C° 0 mm 0 mps 671 mmHg 89%
    07:00 +21°C° 0 mm 1 mps 672 mmHg 88%
    08:00 +23°C° 0.1 mm 1 mps 672 mmHg 81%
    09:00 +25°C° 0.1 mm 1 mps 672 mmHg 75%
    10:00 +26°C° 0.1 mm 2 mps 672 mmHg 69%
    11:00 +27°C° 0.6 mm 2 mps 672 mmHg 68%
    12:00 +27°C° 0.6 mm 2 mps 671 mmHg 68%
    13:00 +28°C° 0.6 mm 3 mps 671 mmHg 67%
    14:00 +27°C° 0.6 mm 2 mps 670 mmHg 70%
    15:00 +27°C° 0.6 mm 2 mps 670 mmHg 74%
    16:00 +27°C° 0.6 mm 1 mps 670 mmHg 78%
    17:00 +25°C° 0.6 mm 1 mps 670 mmHg 82%
    18:00 +23°C° 0.6 mm 1 mps 670 mmHg 86%
    19:00 +22°C° 0.6 mm 1 mps 671 mmHg 91%
    20:00 +21°C° 0.1 mm 1 mps 671 mmHg 91%
    21:00 +21°C° 0.1 mm 1 mps 671 mmHg 92%
    22:00 +18°C° 0.1 mm 0 mps 671 mmHg 93%
    23:00 +20°C° 0 mm 1 mps 671 mmHg 94%

    17 December, Monday

    Time Temperature Precipitation Wind Pressure Humidity
    00:00 +20°C° 0 mm 1 mps 670 mmHg 95%
    01:00 +19°C° 0 mm 1 mps 670 mmHg 95%
    02:00 +19°C° 0 mm 1 mps 670 mmHg 96%
    03:00 +19°C° 0 mm 1 mps 670 mmHg 97%
    04:00 +19°C° 0 mm 1 mps 670 mmHg 97%
    05:00 +20°C° 0.1 mm 1 mps 671 mmHg 96%
    06:00 +20°C° 0.1 mm 1 mps 671 mmHg 95%
    07:00 +21°C° 0.1 mm 1 mps 672 mmHg 94%
    08:00 +21°C° 0.6 mm 2 mps 672 mmHg 89%
    09:00 +24°C° 0.6 mm 2 mps 672 mmHg 84%
    10:00 +26°C° 0.6 mm 2 mps 672 mmHg 80%
    11:00 +26°C° 0.8 mm 2 mps 672 mmHg 79%
    12:00 +26°C° 0.8 mm 2 mps 671 mmHg 79%
    13:00 +27°C° 0.8 mm 2 mps 670 mmHg 78%
    14:00 +26°C° 1.5 mm 2 mps 670 mmHg 82%
    15:00 +26°C° 1.5 mm 2 mps 670 mmHg 86%
    16:00 +25°C° 1.5 mm 1 mps 670 mmHg 90%
    17:00 +24°C° 0.7 mm 1 mps 670 mmHg 91%
    18:00 +22°C° 0.7 mm 1 mps 670 mmHg 93%
    19:00 +21°C° 0.7 mm 1 mps 670 mmHg 94%
    20:00 +21°C° 0 mm 1 mps 671 mmHg 94%
    21:00 +21°C° 0 mm 1 mps 671 mmHg 94%
    22:00 +20°C° 0 mm 1 mps 671 mmHg 95%
    23:00 +20°C° 0 mm 1 mps 671 mmHg 95%
    Show more